owner,sensor,date,latitude,longitude,vertical_datum,mass_concentration_of_oxygen_in_sea_water,qcFlag 
SCCF RECON,ioos:station:SCCF:11:1,2015-04-01T00:00:00Z,26.4679,-82.0631,1.69,9.41,1111122 
SCCF RECON,ioos:station:SCCF:11:1,2015-04-01T01:00:00Z,26.4679,-82.0631,1.67,8.21,1111122 
SCCF RECON,ioos:station:SCCF:11:1,2015-04-01T02:00:00Z,26.4679,-82.0631,1.7,8.29,1111122 
SCCF RECON,ioos:station:SCCF:11:1,2015-04-01T03:00:00Z,26.4679,-82.0631,1.74,8.25,1111122 
SCCF RECON,ioos:station:SCCF:11:1,2015-04-01T04:00:00Z,26.4679,-82.0631,1.79,8.05,1111122 
SCCF RECON,ioos:station:SCCF:11:1,2015-04-01T05:00:00Z,26.4679,-82.0631,1.83,7.76,1111122 
SCCF RECON,ioos:station:SCCF:11:1,2015-04-01T06:00:00Z,26.4679,-82.0631,1.86,8.04,1111122 
SCCF RECON,ioos:station:SCCF:11:1,2015-04-01T07:00:00Z,26.4679,-82.0631,1.86,7.86,1111122 
SCCF RECON,ioos:station:SCCF:11:1,2015-04-01T08:00:00Z,26.4679,-82.0631,1.83,7.71,1111122 
SCCF RECON,ioos:station:SCCF:11:1,2015-04-01T09:00:00Z,26.4679,-82.0631,1.78,7.64,1111122 
SCCF RECON,ioos:station:SCCF:11:1,2015-04-01T10:00:00Z,26.4679,-82.0631,1.71,7.49,1111122 
SCCF RECON,ioos:station:SCCF:11:1,2015-04-01T11:00:00Z,26.4679,-82.0631,1.64,7.33,1111122 
SCCF RECON,ioos:station:SCCF:11:1,2015-04-01T12:00:00Z,26.4679,-82.0631,1.6,7.13,1111122 
SCCF RECON,ioos:station:SCCF:11:1,2015-04-01T13:00:00Z,26.4679,-82.0631,1.6,7.43,1111122 
SCCF RECON,ioos:station:SCCF:11:1,2015-04-01T14:00:00Z,26.4679,-82.0631,1.63,7.48,1111122 
SCCF RECON,ioos:station:SCCF:11:1,2015-04-01T15:00:00Z,26.4679,-82.0631,1.69,7.62,1111122 
SCCF RECON,ioos:station:SCCF:11:1,2015-04-01T16:00:00Z,26.4679,-82.0631,1.75,7.75,1111122 
SCCF RECON,ioos:station:SCCF:11:1,2015-04-01T17:00:00Z,26.4679,-82.0631,1.81,7.75,1111122 
SCCF RECON,ioos:station:SCCF:11:1,2015-04-01T18:00:00Z,26.4679,-82.0631,1.85,8.33,1111122 
SCCF RECON,ioos:station:SCCF:11:1,2015-04-01T19:00:00Z,26.4679,-82.0631,1.875,8.79,1111122 
SCCF RECON,ioos:station:SCCF:11:1,2015-04-01T20:00:00Z,26.4679,-82.0631,1.88,9.15,1111122 
SCCF RECON,ioos:station:SCCF:11:1,2015-04-01T21:00:00Z,26.4679,-82.0631,1.84,9.34,1111122 
SCCF RECON,ioos:station:SCCF:11:1,2015-04-01T22:00:00Z,26.4679,-82.0631,1.78,9.34,1111122 
SCCF RECON,ioos:station:SCCF:11:1,2015-04-01T23:00:00Z,26.4679,-82.0631,1.72,9.32,1111122 
SCCF RECON,ioos:station:SCCF:11:1,2015-04-02T00:00:00Z,26.4679,-82.0631,1.67,8.96,1111122 
SCCF RECON,ioos:station:SCCF:11:1,2015-04-02T01:00:00Z,26.4679,-82.0631,1.64,8.77,1111122 
SCCF RECON,ioos:station:SCCF:11:1,2015-04-02T02:00:00Z,26.4679,-82.0631,1.65,8.49,1111122 
SCCF RECON,ioos:station:SCCF:11:1,2015-04-02T03:00:00Z,26.4679,-82.0631,1.68,8.22,1111122 
SCCF RECON,ioos:station:SCCF:11:1,2015-04-02T04:00:00Z,26.4679,-82.0631,1.71,7.8,1111122 
SCCF RECON,ioos:station:SCCF:11:1,2015-04-02T05:00:00Z,26.4679,-82.0631,1.77,7.49,1111122 
SCCF RECON,ioos:station:SCCF:11:1,2015-04-02T06:00:00Z,26.4679,-82.0631,1.83,7.7,1111122 
SCCF RECON,ioos:station:SCCF:11:1,2015-04-02T07:00:00Z,26.4679,-82.0631,1.86,7.68,1111122 
SCCF RECON,ioos:station:SCCF:11:1,2015-04-02T08:00:00Z,26.4679,-82.0631,1.84,7.49,1111122 
SCCF RECON,ioos:station:SCCF:11:1,2015-04-02T09:00:00Z,26.4679,-82.0631,1.8,7.2,1111122 
SCCF RECON,ioos:station:SCCF:11:1,2015-04-02T10:00:00Z,26.4679,-82.0631,1.743,7.03,1111122 
SCCF RECON,ioos:station:SCCF:11:1,2015-04-02T11:00:00Z,26.4679,-82.0631,1.68,6.85,1111122 
SCCF RECON,ioos:station:SCCF:11:1,2015-04-02T12:00:00Z,26.4679,-82.0631,1.63,6.56,1111122 
SCCF RECON,ioos:station:SCCF:11:1,2015-04-02T13:00:00Z,26.4679,-82.0631,1.6,6.89,1111122 
SCCF RECON,ioos:station:SCCF:11:1,2015-04-02T14:00:00Z,26.4679,-82.0631,1.62,7.28,1111122 
SCCF RECON,ioos:station:SCCF:11:1,2015-04-02T15:00:00Z,26.4679,-82.0631,1.67,7.63,1111122 
SCCF RECON,ioos:station:SCCF:11:1,2015-04-02T16:00:00Z,26.4679,-82.0631,1.73,7.54,1111122 
SCCF RECON,ioos:station:SCCF:11:1,2015-04-02T17:00:00Z,26.4679,-82.0631,1.79,7.58,1111122 
SCCF RECON,ioos:station:SCCF:11:1,2015-04-02T18:00:00Z,26.4679,-82.0631,1.841,8.15,1111122 
SCCF RECON,ioos:station:SCCF:11:1,2015-04-02T19:00:00Z,26.4679,-82.0631,1.87,8.2,1111122 
SCCF RECON,ioos:station:SCCF:11:1,2015-04-02T20:00:00Z,26.4679,-82.0631,1.89,8.69,1111122 
SCCF RECON,ioos:station:SCCF:11:1,2015-04-02T21:00:00Z,26.4679,-82.0631,1.87,8.92,1111122 
SCCF RECON,ioos:station:SCCF:11:1,2015-04-02T22:00:00Z,26.4679,-82.0631,1.81,8.77,1111122 
SCCF RECON,ioos:station:SCCF:11:1,2015-04-02T23:00:00Z,26.4679,-82.0631,1.73,8.75,1111122 
SCCF RECON,ioos:station:SCCF:11:1,2015-04-03T00:00:00Z,26.4679,-82.0631,1.66,9.66,1111122 
SCCF RECON,ioos:station:SCCF:11:1,2015-04-03T01:00:00Z,26.4679,-82.0631,1.62,8.47,1111122 
SCCF RECON,ioos:station:SCCF:11:1,2015-04-03T02:00:00Z,26.4679,-82.0631,1.62,8.36,1111122 
SCCF RECON,ioos:station:SCCF:11:1,2015-04-03T03:00:00Z,26.4679,-82.0631,1.652,8.28,1111122 
SCCF RECON,ioos:station:SCCF:11:1,2015-04-03T04:00:00Z,26.4679,-82.0631,1.69,7.93,1111122 
SCCF RECON,ioos:station:SCCF:11:1,2015-04-03T05:00:00Z,26.4679,-82.0631,1.74,7.73,1111122 
SCCF RECON,ioos:station:SCCF:11:1,2015-04-03T06:00:00Z,26.4679,-82.0631,1.79,7.6,1111122 
SCCF RECON,ioos:station:SCCF:11:1,2015-04-03T07:00:00Z,26.4679,-82.0631,1.83,7.65,1111122 
SCCF RECON,ioos:station:SCCF:11:1,2015-04-03T08:00:00Z,26.4679,-82.0631,1.84,7.48,1111122 
SCCF RECON,ioos:station:SCCF:11:1,2015-04-03T09:00:00Z,26.4679,-82.0631,1.81,6.98,1111122 
SCCF RECON,ioos:station:SCCF:11:1,2015-04-03T10:00:00Z,26.4679,-82.0631,1.75,6.92,1111122 
SCCF RECON,ioos:station:SCCF:11:1,2015-04-03T11:00:00Z,26.4679,-82.0631,1.7,6.59,1111122 
SCCF RECON,ioos:station:SCCF:11:1,2015-04-03T12:00:00Z,26.4679,-82.0631,1.64,6.41,1111122 
SCCF RECON,ioos:station:SCCF:11:1,2015-04-03T13:00:00Z,26.4679,-82.0631,1.61,6.51,1111122 
SCCF RECON,ioos:station:SCCF:11:1,2015-04-03T14:00:00Z,26.4679,-82.0631,1.62,7.15,1111122 
SCCF RECON,ioos:station:SCCF:11:1,2015-04-03T15:00:00Z,26.4679,-82.0631,1.65,7.61,1111122 
SCCF RECON,ioos:station:SCCF:11:1,2015-04-03T16:00:00Z,26.4679,-82.0631,1.72,7.4,1111122 
SCCF RECON,ioos:station:SCCF:11:1,2015-04-03T17:00:00Z,26.4679,-82.0631,1.78,8.09,1111122 
SCCF RECON,ioos:station:SCCF:11:1,2015-04-03T18:00:00Z,26.4679,-82.0631,1.84,7.86,1111122 
SCCF RECON,ioos:station:SCCF:11:1,2015-04-03T19:00:00Z,26.4679,-82.0631,1.87,7.72,1111122 
SCCF RECON,ioos:station:SCCF:11:1,2015-04-03T20:00:00Z,26.4679,-82.0631,1.91,8.54,1111122 
SCCF RECON,ioos:station:SCCF:11:1,2015-04-03T21:00:00Z,26.4679,-82.0631,1.91,8.9,1111122 
SCCF RECON,ioos:station:SCCF:11:1,2015-04-03T22:00:00Z,26.4679,-82.0631,1.863,8.79,1111122 
SCCF RECON,ioos:station:SCCF:11:1,2015-04-03T23:00:00Z,26.4679,-82.0631,1.79,8.86,1111122 
SCCF RECON,ioos:station:SCCF:11:1,2015-04-04T00:00:00Z,26.4679,-82.0631,1.71,8.57,1111122 
SCCF RECON,ioos:station:SCCF:11:1,2015-04-04T01:00:00Z,26.4679,-82.0631,1.63,8.98,1111122 
SCCF RECON,ioos:station:SCCF:11:1,2015-04-04T02:00:00Z,26.4679,-82.0631,1.59,8.1,1111122 
SCCF RECON,ioos:station:SCCF:11:1,2015-04-04T03:00:00Z,26.4679,-82.0631,1.6,8.08,1111122 
SCCF RECON,ioos:station:SCCF:11:1,2015-04-04T04:00:00Z,26.4679,-82.0631,1.63,8.09,1111122 
SCCF RECON,ioos:station:SCCF:11:1,2015-04-04T05:00:00Z,26.4679,-82.0631,1.68,7.58,1111122 
SCCF RECON,ioos:station:SCCF:11:1,2015-04-04T06:00:00Z,26.4679,-82.0631,1.74,7.64,1111122 
SCCF RECON,ioos:station:SCCF:11:1,2015-04-04T07:00:00Z,26.4679,-82.0631,1.79,7.66,1111122 
SCCF RECON,ioos:station:SCCF:11:1,2015-04-04T08:00:00Z,26.4679,-82.0631,1.82,7.41,1111122 
SCCF RECON,ioos:station:SCCF:11:1,2015-04-04T09:00:00Z,26.4679,-82.0631,1.81,7.07,1111122 
SCCF RECON,ioos:station:SCCF:11:1,2015-04-04T10:00:00Z,26.4679,-82.0631,1.77,6.85,1111122 
SCCF RECON,ioos:station:SCCF:11:1,2015-04-04T11:00:00Z,26.4679,-82.0631,1.72,6.63,1111122 
SCCF RECON,ioos:station:SCCF:11:1,2015-04-04T12:00:00Z,26.4679,-82.0631,1.67,6.36,1111122 
SCCF RECON,ioos:station:SCCF:11:1,2015-04-04T13:00:00Z,26.4679,-82.0631,1.62,6.29,1111122 
SCCF RECON,ioos:station:SCCF:11:1,2015-04-04T14:00:00Z,26.4679,-82.0631,1.62,6.68,1111122 
SCCF RECON,ioos:station:SCCF:11:1,2015-04-04T15:00:00Z,26.4679,-82.0631,1.65,7.34,1111122 
SCCF RECON,ioos:station:SCCF:11:1,2015-04-04T16:00:00Z,26.4679,-82.0631,1.7,7.53,1111122 
SCCF RECON,ioos:station:SCCF:11:1,2015-04-04T17:00:00Z,26.4679,-82.0631,1.751,7.42,1111122 
SCCF RECON,ioos:station:SCCF:11:1,2015-04-04T18:00:00Z,26.4679,-82.0631,1.82,7.77,1111122 
SCCF RECON,ioos:station:SCCF:11:1,2015-04-04T19:00:00Z,26.4679,-82.0631,1.89,7.85,1111122 
SCCF RECON,ioos:station:SCCF:11:1,2015-04-04T20:00:00Z,26.4679,-82.0631,1.91,8.42,1111122 
SCCF RECON,ioos:station:SCCF:11:1,2015-04-04T21:00:00Z,26.4679,-82.0631,1.89,8.63,1111122 
SCCF RECON,ioos:station:SCCF:11:1,2015-04-04T22:00:00Z,26.4679,-82.0631,1.84,8.57,1111122 
SCCF RECON,ioos:station:SCCF:11:1,2015-04-04T23:00:00Z,26.4679,-82.0631,1.76,8.34,1111122 
SCCF RECON,ioos:station:SCCF:11:1,2015-04-05T00:00:00Z,26.4679,-82.0631,1.662,8.37,1111122 
SCCF RECON,ioos:station:SCCF:11:1,2015-04-05T01:00:00Z,26.4679,-82.0631,1.57,8.38,1111122 
SCCF RECON,ioos:station:SCCF:11:1,2015-04-05T02:00:00Z,26.4679,-82.0631,1.52,7.94,1111122 
SCCF RECON,ioos:station:SCCF:11:1,2015-04-05T03:00:00Z,26.4679,-82.0631,1.5,7.55,1111122 
SCCF RECON,ioos:station:SCCF:11:1,2015-04-05T04:00:00Z,26.4679,-82.0631,1.53,7.62,1111122 
SCCF RECON,ioos:station:SCCF:11:1,2015-04-05T05:00:00Z,26.4679,-82.0631,1.58,7.48,1111122 
SCCF RECON,ioos:station:SCCF:11:1,2015-04-05T06:00:00Z,26.4679,-82.0631,1.63,7.38,1111122 
SCCF RECON,ioos:station:SCCF:11:1,2015-04-05T07:00:00Z,26.4679,-82.0631,1.68,7.22,1111122 
SCCF RECON,ioos:station:SCCF:11:1,2015-04-05T08:00:00Z,26.4679,-82.0631,1.72,7.28,1111122 
SCCF RECON,ioos:station:SCCF:11:1,2015-04-05T09:00:00Z,26.4679,-82.0631,1.74,6.77,1111122 
SCCF RECON,ioos:station:SCCF:11:1,2015-04-05T10:00:00Z,26.4679,-82.0631,1.71,6.42,1111122 
SCCF RECON,ioos:station:SCCF:11:1,2015-04-05T11:00:00Z,26.4679,-82.0631,1.67,6.11,1111122 
SCCF RECON,ioos:station:SCCF:11:1,2015-04-05T12:00:00Z,26.4679,-82.0631,1.62,6.0,1111122 
SCCF RECON,ioos:station:SCCF:11:1,2015-04-05T13:00:00Z,26.4679,-82.0631,1.588,5.93,1111122 
SCCF RECON,ioos:station:SCCF:11:1,2015-04-05T14:00:00Z,26.4679,-82.0631,1.57,6.05,1111122 
SCCF RECON,ioos:station:SCCF:11:1,2015-04-05T15:00:00Z,26.4679,-82.0631,1.594,7.14,1111122 
SCCF RECON,ioos:station:SCCF:11:1,2015-04-05T16:00:00Z,26.4679,-82.0631,1.65,7.49,1111122 
SCCF RECON,ioos:station:SCCF:11:1,2015-04-05T17:00:00Z,26.4679,-82.0631,1.72,7.49,1111122 
SCCF RECON,ioos:station:SCCF:11:1,2015-04-05T18:00:00Z,26.4679,-82.0631,1.8,7.89,1111122 
SCCF RECON,ioos:station:SCCF:11:1,2015-04-05T19:00:00Z,26.4679,-82.0631,1.856,7.29,1111122 
SCCF RECON,ioos:station:SCCF:11:1,2015-04-05T20:00:00Z,26.4679,-82.0631,1.89,7.67,1111122 
SCCF RECON,ioos:station:SCCF:11:1,2015-04-05T21:00:00Z,26.4679,-82.0631,1.9,8.33,1111122 
SCCF RECON,ioos:station:SCCF:11:1,2015-04-05T22:00:00Z,26.4679,-82.0631,1.88,8.52,1111122 
SCCF RECON,ioos:station:SCCF:11:1,2015-04-05T23:00:00Z,26.4679,-82.0631,1.81,8.43,1111122 
SCCF RECON,ioos:station:SCCF:11:1,2015-04-06T00:00:00Z,26.4679,-82.0631,1.73,8.25,1111122 
SCCF RECON,ioos:station:SCCF:11:1,2015-04-06T01:00:00Z,26.4679,-82.0631,1.65,7.93,1111122 
SCCF RECON,ioos:station:SCCF:11:1,2015-04-06T02:00:00Z,26.4679,-82.0631,1.58,7.81,1111122 
SCCF RECON,ioos:station:SCCF:11:1,2015-04-06T03:00:00Z,26.4679,-82.0631,1.55,7.72,1111122 
SCCF RECON,ioos:station:SCCF:11:1,2015-04-06T04:00:00Z,26.4679,-82.0631,1.54,7.61,1111122 
SCCF RECON,ioos:station:SCCF:11:1,2015-04-06T05:00:00Z,26.4679,-82.0631,1.57,7.4,1111122 
SCCF RECON,ioos:station:SCCF:11:1,2015-04-06T06:00:00Z,26.4679,-82.0631,1.62,7.04,1111122 
SCCF RECON,ioos:station:SCCF:11:1,2015-04-06T07:00:00Z,26.4679,-82.0631,1.69,7.07,1111122 
SCCF RECON,ioos:station:SCCF:11:1,2015-04-06T08:00:00Z,26.4679,-82.0631,1.74,6.92,1111122 
SCCF RECON,ioos:station:SCCF:11:1,2015-04-06T09:00:00Z,26.4679,-82.0631,1.78,6.85,1111122 
SCCF RECON,ioos:station:SCCF:11:1,2015-04-06T10:00:00Z,26.4679,-82.0631,1.77,6.51,1111122 
SCCF RECON,ioos:station:SCCF:11:1,2015-04-06T11:00:00Z,26.4679,-82.0631,1.75,6.29,1111122 
SCCF RECON,ioos:station:SCCF:11:1,2015-04-06T12:00:00Z,26.4679,-82.0631,1.72,6.01,1111122 
SCCF RECON,ioos:station:SCCF:11:1,2015-04-06T13:00:00Z,26.4679,-82.0631,1.69,5.91,1111122 
SCCF RECON,ioos:station:SCCF:11:1,2015-04-06T14:00:00Z,26.4679,-82.0631,1.67,5.88,1111122 
SCCF RECON,ioos:station:SCCF:11:1,2015-04-06T15:00:00Z,26.4679,-82.0631,1.67,6.92,1111122 
SCCF RECON,ioos:station:SCCF:11:1,2015-04-06T16:00:00Z,26.4679,-82.0631,1.719,7.51,1111122 
SCCF RECON,ioos:station:SCCF:11:1,2015-04-06T17:00:00Z,26.4679,-82.0631,1.78,7.72,1111122 
SCCF RECON,ioos:station:SCCF:11:1,2015-04-06T18:00:00Z,26.4679,-82.0631,1.83,7.25,1111122 
SCCF RECON,ioos:station:SCCF:11:1,2015-04-06T19:00:00Z,26.4679,-82.0631,1.88,7.34,1111122 
SCCF RECON,ioos:station:SCCF:11:1,2015-04-06T20:00:00Z,26.4679,-82.0631,1.94,8.03,1111122 
SCCF RECON,ioos:station:SCCF:11:1,2015-04-06T21:00:00Z,26.4679,-82.0631,2.0,8.98,1111122 
SCCF RECON,ioos:station:SCCF:11:1,2015-04-06T22:00:00Z,26.4679,-82.0631,1.97,8.38,1111122 
SCCF RECON,ioos:station:SCCF:11:1,2015-04-06T23:00:00Z,26.4679,-82.0631,1.91,8.24,1111122 
SCCF RECON,ioos:station:SCCF:11:1,2015-04-07T00:00:00Z,26.4679,-82.0631,1.828,8.0,1111122 
SCCF RECON,ioos:station:SCCF:11:1,2015-04-07T01:00:00Z,26.4679,-82.0631,1.73,7.56,1111122 
SCCF RECON,ioos:station:SCCF:11:1,2015-04-07T02:00:00Z,26.4679,-82.0631,1.64,7.15,1111122 
SCCF RECON,ioos:station:SCCF:11:1,2015-04-07T03:00:00Z,26.4679,-82.0631,1.58,7.08,1111122 
SCCF RECON,ioos:station:SCCF:11:1,2015-04-07T04:00:00Z,26.4679,-82.0631,1.56,7.06,1111122 
SCCF RECON,ioos:station:SCCF:11:1,2015-04-07T05:00:00Z,26.4679,-82.0631,1.58,6.98,1111122 
SCCF RECON,ioos:station:SCCF:11:1,2015-04-07T06:00:00Z,26.4679,-82.0631,1.62,7.03,1111122 
SCCF RECON,ioos:station:SCCF:11:1,2015-04-07T07:00:00Z,26.4679,-82.0631,1.67,7.0,1111122 
SCCF RECON,ioos:station:SCCF:11:1,2015-04-07T08:00:00Z,26.4679,-82.0631,1.71,7.0,1111122 
SCCF RECON,ioos:station:SCCF:11:1,2015-04-07T09:00:00Z,26.4679,-82.0631,1.75,6.99,1111122 
SCCF RECON,ioos:station:SCCF:11:1,2015-04-07T10:00:00Z,26.4679,-82.0631,1.77,6.63,1111122 
SCCF RECON,ioos:station:SCCF:11:1,2015-04-07T11:00:00Z,26.4679,-82.0631,1.77,6.2,1111122 
SCCF RECON,ioos:station:SCCF:11:1,2015-04-07T12:00:00Z,26.4679,-82.0631,1.75,6.1,1111122 
SCCF RECON,ioos:station:SCCF:11:1,2015-04-07T13:00:00Z,26.4679,-82.0631,1.72,5.86,1111122 
SCCF RECON,ioos:station:SCCF:11:1,2015-04-07T14:00:00Z,26.4679,-82.0631,1.69,5.92,1111122 
SCCF RECON,ioos:station:SCCF:11:1,2015-04-07T15:00:00Z,26.4679,-82.0631,1.68,6.14,1111122 
SCCF RECON,ioos:station:SCCF:11:1,2015-04-07T16:00:00Z,26.4679,-82.0631,1.72,6.77,1111122 
SCCF RECON,ioos:station:SCCF:11:1,2015-04-07T17:00:00Z,26.4679,-82.0631,1.77,7.07,1111122 
SCCF RECON,ioos:station:SCCF:11:1,2015-04-07T18:00:00Z,26.4679,-82.0631,1.82,7.17,1111122 
SCCF RECON,ioos:station:SCCF:11:1,2015-04-07T19:00:00Z,26.4679,-82.0631,1.88,7.56,1111122 
SCCF RECON,ioos:station:SCCF:11:1,2015-04-07T20:00:00Z,26.4679,-82.0631,1.93,7.65,1111122 
SCCF RECON,ioos:station:SCCF:11:1,2015-04-07T21:00:00Z,26.4679,-82.0631,1.97,8.72,1111122 
SCCF RECON,ioos:station:SCCF:11:1,2015-04-07T22:00:00Z,26.4679,-82.0631,1.95,8.56,1111122 
SCCF RECON,ioos:station:SCCF:11:1,2015-04-07T23:00:00Z,26.4679,-82.0631,1.91,8.17,1111122 
SCCF RECON,ioos:station:SCCF:11:1,2015-04-08T00:00:00Z,26.4679,-82.0631,1.827,7.85,1111122 
SCCF RECON,ioos:station:SCCF:11:1,2015-04-08T01:00:00Z,26.4679,-82.0631,1.73,7.37,1111122 
SCCF RECON,ioos:station:SCCF:11:1,2015-04-08T02:00:00Z,26.4679,-82.0631,1.64,6.96,1111122 
SCCF RECON,ioos:station:SCCF:11:1,2015-04-08T03:00:00Z,26.4679,-82.0631,1.55,6.51,1111122 
SCCF RECON,ioos:station:SCCF:11:1,2015-04-08T04:00:00Z,26.4679,-82.0631,1.496,6.34,1111122 
SCCF RECON,ioos:station:SCCF:11:1,2015-04-08T05:00:00Z,26.4679,-82.0631,1.49,6.76,1111122 
SCCF RECON,ioos:station:SCCF:11:1,2015-04-08T06:00:00Z,26.4679,-82.0631,1.5,7.13,1111122 
SCCF RECON,ioos:station:SCCF:11:1,2015-04-08T07:00:00Z,26.4679,-82.0631,1.54,6.89,1111122 
SCCF RECON,ioos:station:SCCF:11:1,2015-04-08T08:00:00Z,26.4679,-82.0631,1.59,6.74,1111122 
SCCF RECON,ioos:station:SCCF:11:1,2015-04-08T09:00:00Z,26.4679,-82.0631,1.63,6.58,1111122 
SCCF RECON,ioos:station:SCCF:11:1,2015-04-08T10:00:00Z,26.4679,-82.0631,1.67,6.51,1111122 
SCCF RECON,ioos:station:SCCF:11:1,2015-04-08T11:00:00Z,26.4679,-82.0631,1.69,6.48,1111122 
SCCF RECON,ioos:station:SCCF:11:1,2015-04-08T12:00:00Z,26.4679,-82.0631,1.69,5.84,1111122 
SCCF RECON,ioos:station:SCCF:11:1,2015-04-08T13:00:00Z,26.4679,-82.0631,1.68,5.62,1111122 
SCCF RECON,ioos:station:SCCF:11:1,2015-04-08T14:00:00Z,26.4679,-82.0631,1.67,5.94,1111122 
SCCF RECON,ioos:station:SCCF:11:1,2015-04-08T15:00:00Z,26.4679,-82.0631,1.67,5.69,1111122 
SCCF RECON,ioos:station:SCCF:11:1,2015-04-08T16:00:00Z,26.4679,-82.0631,1.69,6.85,1111122 
SCCF RECON,ioos:station:SCCF:11:1,2015-04-08T17:00:00Z,26.4679,-82.0631,1.73,7.25,1111122 
SCCF RECON,ioos:station:SCCF:11:1,2015-04-08T18:00:00Z,26.4679,-82.0631,1.79,7.26,1111122 
SCCF RECON,ioos:station:SCCF:11:1,2015-04-08T19:00:00Z,26.4679,-82.0631,1.842,7.49,1111122 
SCCF RECON,ioos:station:SCCF:11:1,2015-04-08T20:00:00Z,26.4679,-82.0631,1.91,7.67,1111122 
SCCF RECON,ioos:station:SCCF:11:1,2015-04-08T21:00:00Z,26.4679,-82.0631,1.97,8.78,1111122 
SCCF RECON,ioos:station:SCCF:11:1,2015-04-08T22:00:00Z,26.4679,-82.0631,1.985,8.86,1111122 
SCCF RECON,ioos:station:SCCF:11:1,2015-04-08T23:00:00Z,26.4679,-82.0631,1.96,8.36,1111122 
SCCF RECON,ioos:station:SCCF:11:1,2015-04-09T00:00:00Z,26.4679,-82.0631,1.91,7.93,1111122 
SCCF RECON,ioos:station:SCCF:11:1,2015-04-09T01:00:00Z,26.4679,-82.0631,1.83,7.56,1111122 
SCCF RECON,ioos:station:SCCF:11:1,2015-04-09T02:00:00Z,26.4679,-82.0631,1.75,7.14,1111122 
SCCF RECON,ioos:station:SCCF:11:1,2015-04-09T03:00:00Z,26.4679,-82.0631,1.66,6.68,1111122 
SCCF RECON,ioos:station:SCCF:11:1,2015-04-09T04:00:00Z,26.4679,-82.0631,1.585,7.17,1111122 
SCCF RECON,ioos:station:SCCF:11:1,2015-04-09T05:00:00Z,26.4679,-82.0631,1.54,6.44,1111122 
SCCF RECON,ioos:station:SCCF:11:1,2015-04-09T06:00:00Z,26.4679,-82.0631,1.54,6.32,1111122 
SCCF RECON,ioos:station:SCCF:11:1,2015-04-09T07:00:00Z,26.4679,-82.0631,1.56,6.47,1111122 
SCCF RECON,ioos:station:SCCF:11:1,2015-04-09T08:00:00Z,26.4679,-82.0631,1.59,6.4,1111122 
SCCF RECON,ioos:station:SCCF:11:1,2015-04-09T09:00:00Z,26.4679,-82.0631,1.64,6.3,1111122 
SCCF RECON,ioos:station:SCCF:11:1,2015-04-09T10:00:00Z,26.4679,-82.0631,1.69,6.39,1111122 
SCCF RECON,ioos:station:SCCF:11:1,2015-04-09T11:00:00Z,26.4679,-82.0631,1.71,6.32,1111122 
SCCF RECON,ioos:station:SCCF:11:1,2015-04-09T12:00:00Z,26.4679,-82.0631,1.72,6.13,1111122 
SCCF RECON,ioos:station:SCCF:11:1,2015-04-09T13:00:00Z,26.4679,-82.0631,1.72,5.85,1111122 
SCCF RECON,ioos:station:SCCF:11:1,2015-04-09T14:00:00Z,26.4679,-82.0631,1.73,5.87,1111122 
SCCF RECON,ioos:station:SCCF:11:1,2015-04-09T15:00:00Z,26.4679,-82.0631,1.73,6.1,1111122 
SCCF RECON,ioos:station:SCCF:11:1,2015-04-09T16:00:00Z,26.4679,-82.0631,1.74,6.86,1111122 
SCCF RECON,ioos:station:SCCF:11:1,2015-04-09T17:00:00Z,26.4679,-82.0631,1.77,7.29,1111122 
SCCF RECON,ioos:station:SCCF:11:1,2015-04-09T18:00:00Z,26.4679,-82.0631,1.81,7.48,1111122 
SCCF RECON,ioos:station:SCCF:11:1,2015-04-09T19:00:00Z,26.4679,-82.0631,1.86,7.71,1111122 
SCCF RECON,ioos:station:SCCF:11:1,2015-04-09T20:00:00Z,26.4679,-82.0631,1.9,7.52,1111122 
SCCF RECON,ioos:station:SCCF:11:1,2015-04-09T21:00:00Z,26.4679,-82.0631,1.93,7.3,1111122 
SCCF RECON,ioos:station:SCCF:11:1,2015-04-09T22:00:00Z,26.4679,-82.0631,1.98,8.76,1111122 
SCCF RECON,ioos:station:SCCF:11:1,2015-04-09T23:00:00Z,26.4679,-82.0631,2.02,9.2,1111122 
SCCF RECON,ioos:station:SCCF:11:1,2015-04-10T00:00:00Z,26.4679,-82.0631,1.97,8.34,1111122 
SCCF RECON,ioos:station:SCCF:11:1,2015-04-10T01:00:00Z,26.4679,-82.0631,1.902,7.84,1111122 
SCCF RECON,ioos:station:SCCF:11:1,2015-04-10T02:00:00Z,26.4679,-82.0631,1.82,7.48,1111122 
SCCF RECON,ioos:station:SCCF:11:1,2015-04-10T03:00:00Z,26.4679,-82.0631,1.73,7.06,1111122 
SCCF RECON,ioos:station:SCCF:11:1,2015-04-10T04:00:00Z,26.4679,-82.0631,1.64,6.65,1111122 
SCCF RECON,ioos:station:SCCF:11:1,2015-04-10T05:00:00Z,26.4679,-82.0631,1.58,6.29,1111122 
SCCF RECON,ioos:station:SCCF:11:1,2015-04-10T06:00:00Z,26.4679,-82.0631,1.53,6.45,1111122 
SCCF RECON,ioos:station:SCCF:11:1,2015-04-10T07:00:00Z,26.4679,-82.0631,1.53,6.39,1111122 
SCCF RECON,ioos:station:SCCF:11:1,2015-04-10T08:00:00Z,26.4679,-82.0631,1.54,6.19,1111122 
SCCF RECON,ioos:station:SCCF:11:1,2015-04-10T09:00:00Z,26.4679,-82.0631,1.57,6.14,1111122 
SCCF RECON,ioos:station:SCCF:11:1,2015-04-10T10:00:00Z,26.4679,-82.0631,1.6,6.06,1111122 
SCCF RECON,ioos:station:SCCF:11:1,2015-04-10T11:00:00Z,26.4679,-82.0631,1.65,6.11,1111122 
SCCF RECON,ioos:station:SCCF:11:1,2015-04-10T12:00:00Z,26.4679,-82.0631,1.69,6.24,1111122 
SCCF RECON,ioos:station:SCCF:11:1,2015-04-10T13:00:00Z,26.4679,-82.0631,1.72,6.25,1111122 
SCCF RECON,ioos:station:SCCF:11:1,2015-04-10T14:00:00Z,26.4679,-82.0631,1.73,6.17,1111122 
SCCF RECON,ioos:station:SCCF:11:1,2015-04-10T15:00:00Z,26.4679,-82.0631,1.74,6.61,1111122 
SCCF RECON,ioos:station:SCCF:11:1,2015-04-10T16:00:00Z,26.4679,-82.0631,1.75,6.93,1111122 
SCCF RECON,ioos:station:SCCF:11:1,2015-04-10T17:00:00Z,26.4679,-82.0631,1.77,6.95,1111122 
SCCF RECON,ioos:station:SCCF:11:1,2015-04-10T18:00:00Z,26.4679,-82.0631,1.81,7.39,1111122 
SCCF RECON,ioos:station:SCCF:11:1,2015-04-10T19:00:00Z,26.4679,-82.0631,1.86,8.08,1111122 
SCCF RECON,ioos:station:SCCF:11:1,2015-04-10T20:00:00Z,26.4679,-82.0631,1.91,8.5,1111122 
SCCF RECON,ioos:station:SCCF:11:1,2015-04-10T21:00:00Z,26.4679,-82.0631,1.92,8.02,1111122 
SCCF RECON,ioos:station:SCCF:11:1,2015-04-10T22:00:00Z,26.4679,-82.0631,1.94,8.82,1111122 
SCCF RECON,ioos:station:SCCF:11:1,2015-04-10T23:00:00Z,26.4679,-82.0631,2.01,9.67,1111122 
SCCF RECON,ioos:station:SCCF:11:1,2015-04-11T00:00:00Z,26.4679,-82.0631,1.99,8.78,1111122 
SCCF RECON,ioos:station:SCCF:11:1,2015-04-11T01:00:00Z,26.4679,-82.0631,1.94,8.19,1111122 
SCCF RECON,ioos:station:SCCF:11:1,2015-04-11T02:00:00Z,26.4679,-82.0631,1.88,7.55,1111122 
SCCF RECON,ioos:station:SCCF:11:1,2015-04-11T03:00:00Z,26.4679,-82.0631,1.8,7.36,1111122 
SCCF RECON,ioos:station:SCCF:11:1,2015-04-11T04:00:00Z,26.4679,-82.0631,1.72,7.07,1111122 
SCCF RECON,ioos:station:SCCF:11:1,2015-04-11T05:00:00Z,26.4679,-82.0631,1.64,6.74,1111122 
SCCF RECON,ioos:station:SCCF:11:1,2015-04-11T06:00:00Z,26.4679,-82.0631,1.58,6.95,1111122 
SCCF RECON,ioos:station:SCCF:11:1,2015-04-11T07:00:00Z,26.4679,-82.0631,1.53,5.72,1111122 
SCCF RECON,ioos:station:SCCF:11:1,2015-04-11T08:00:00Z,26.4679,-82.0631,1.52,6.48,1111122 
SCCF RECON,ioos:station:SCCF:11:1,2015-04-11T09:00:00Z,26.4679,-82.0631,1.53,6.78,1111122 
SCCF RECON,ioos:station:SCCF:11:1,2015-04-11T10:00:00Z,26.4679,-82.0631,1.57,6.26,1111122 
SCCF RECON,ioos:station:SCCF:11:1,2015-04-11T11:00:00Z,26.4679,-82.0631,1.61,6.21,1111122 
SCCF RECON,ioos:station:SCCF:11:1,2015-04-11T12:00:00Z,26.4679,-82.0631,1.653,6.31,1111122 
SCCF RECON,ioos:station:SCCF:11:1,2015-04-11T13:00:00Z,26.4679,-82.0631,1.69,6.43,1111122 
SCCF RECON,ioos:station:SCCF:11:1,2015-04-11T14:00:00Z,26.4679,-82.0631,1.72,6.25,1111122 
SCCF RECON,ioos:station:SCCF:11:1,2015-04-11T15:00:00Z,26.4679,-82.0631,1.75,6.32,1111122 
SCCF RECON,ioos:station:SCCF:11:1,2015-04-11T16:00:00Z,26.4679,-82.0631,1.76,6.68,1111122 
SCCF RECON,ioos:station:SCCF:11:1,2015-04-11T17:00:00Z,26.4679,-82.0631,1.78,6.67,1111122 
SCCF RECON,ioos:station:SCCF:11:1,2015-04-11T18:00:00Z,26.4679,-82.0631,1.76,7.04,1111122 
SCCF RECON,ioos:station:SCCF:11:1,2015-04-11T19:00:00Z,26.4679,-82.0631,1.8,7.7,1111122 
SCCF RECON,ioos:station:SCCF:11:1,2015-04-11T20:00:00Z,26.4679,-82.0631,1.82,7.77,1111122 
SCCF RECON,ioos:station:SCCF:11:1,2015-04-11T21:00:00Z,26.4679,-82.0631,1.84,8.03,1111122 